Time,TemperatureF,DewpointF,PressureIn,WindDirection,WindDirectionDegrees,WindSpeedMPH,WindSpeedGustMPH,Humidity,HourlyPrecipIn,Conditions,Clouds,dailyrainin,SolarRadiationWatts/m^2,SoftwareType,DateUTC
2013-11-23 00:11:00,35.1,33.0,30.57,North,355,9.0,-999.0,90,-99.99,,,0.00,0,weatherlink.com 1.10,2013-11-23 06:11:00,
2013-11-23 00:26:00,35.1,33.0,30.57,NNW,342,12.0,-999.0,91,-99.99,,,0.00,0,weatherlink.com 1.10,2013-11-23 06:26:00,
2013-11-23 00:41:00,34.8,33.0,30.57,NNW,344,7.0,-999.0,91,-99.99,,,0.00,0,weatherlink.com 1.10,2013-11-23 06:41:00,
2013-11-23 00:56:00,34.7,32.0,30.57,NNW,328,13.0,-999.0,91,-99.99,,,0.01,0,weatherlink.com 1.10,2013-11-23 06:56:00,
2013-11-23 01:11:00,34.8,33.0,30.57,North,349,9.0,-999.0,92,-99.99,,,0.01,0,weatherlink.com 1.10,2013-11-23 07:11:00,
2013-11-23 01:26:00,34.8,33.0,30.57,North,351,8.0,-999.0,91,-99.99,,,0.01,0,weatherlink.com 1.10,2013-11-23 07:26:00,
2013-11-23 01:41:00,35.0,33.0,30.57,NNW,346,9.0,-999.0,91,-99.99,,,0.01,0,weatherlink.com 1.10,2013-11-23 07:41:00,
2013-11-23 01:56:00,35.0,33.0,30.57,NNE,20,4.0,-999.0,91,-99.99,,,0.01,0,weatherlink.com 1.10,2013-11-23 07:56:00,
2013-11-23 02:11:00,35.2,33.0,30.58,NNW,335,9.0,-999.0,91,-99.99,,,0.01,0,weatherlink.com 1.10,2013-11-23 08:11:00,
2013-11-23 02:26:00,35.3,33.0,30.58,North,360,10.0,-999.0,90,-99.99,,,0.01,0,weatherlink.com 1.10,2013-11-23 08:26:00,
2013-11-23 02:41:00,35.3,32.0,30.58,NNW,346,7.0,-999.0,89,-99.99,,,0.01,0,weatherlink.com 1.10,2013-11-23 08:41:00,
2013-11-23 02:56:00,35.4,33.0,30.57,NNW,338,10.0,-999.0,89,-99.99,,,0.01,0,weatherlink.com 1.10,2013-11-23 08:56:00,
2013-11-23 03:11:00,35.4,33.0,30.57,NNW,334,8.0,-999.0,89,-99.99,,,0.01,0,weatherlink.com 1.10,2013-11-23 09:11:00,
2013-11-23 03:26:00,35.6,33.0,30.57,NW,325,14.0,-999.0,89,-99.99,,,0.01,0,weatherlink.com 1.10,2013-11-23 09:26:00,
2013-11-23 03:41:00,35.6,32.0,30.58,North,355,11.0,-999.0,88,-99.99,,,0.01,0,weatherlink.com 1.10,2013-11-23 09:41:00,
2013-11-23 03:56:00,35.6,32.0,30.57,North,355,11.0,-999.0,88,-99.99,,,0.01,0,weatherlink.com 1.10,2013-11-23 09:56:00,
2013-11-23 04:11:00,35.4,32.0,30.58,North,355,9.0,-999.0,87,-99.99,,,0.01,0,weatherlink.com 1.10,2013-11-23 10:11:00,
2013-11-23 04:26:00,35.4,32.0,30.59,NNW,348,11.0,-999.0,86,-99.99,,,0.01,0,weatherlink.com 1.10,2013-11-23 10:26:00,
2013-11-23 04:41:00,35.5,32.0,30.59,North,355,12.0,-999.0,87,-99.99,,,0.01,0,weatherlink.com 1.10,2013-11-23 10:41:00,
2013-11-23 04:56:00,35.3,32.0,30.60,NNW,331,11.0,-999.0,87,-99.99,,,0.01,0,weatherlink.com 1.10,2013-11-23 10:56:00,
2013-11-23 05:11:00,35.3,32.0,30.60,NNW,336,9.0,-999.0,87,-99.99,,,0.01,0,weatherlink.com 1.10,2013-11-23 11:11:00,
2013-11-23 05:26:00,35.3,32.0,30.60,North,350,9.0,-999.0,86,-99.99,,,0.01,0,weatherlink.com 1.10,2013-11-23 11:26:00,
2013-11-23 05:41:00,35.1,32.0,30.61,NNW,348,10.0,-999.0,87,-99.99,,,0.01,0,weatherlink.com 1.10,2013-11-23 11:41:00,
2013-11-23 05:56:00,35.0,31.0,30.61,NNE,14,14.0,-999.0,86,-99.99,,,0.01,0,weatherlink.com 1.10,2013-11-23 11:56:00,
2013-11-23 06:11:00,34.8,31.0,30.62,NNW,333,11.0,-999.0,87,-99.99,,,0.01,0,weatherlink.com 1.10,2013-11-23 12:11:00,
2013-11-23 06:26:00,34.8,31.0,30.63,NW,319,10.0,-999.0,87,-99.99,,,0.01,0,weatherlink.com 1.10,2013-11-23 12:26:00,
2013-11-23 06:41:00,34.7,32.0,30.64,NNW,338,14.0,-999.0,88,-99.99,,,0.01,0,weatherlink.com 1.10,2013-11-23 12:41:00,
2013-11-23 06:56:00,34.6,31.0,30.64,North,351,16.0,-999.0,88,-99.99,,,0.01,0,weatherlink.com 1.10,2013-11-23 12:56:00,
2013-11-23 07:12:00,34.3,31.0,30.65,North,355,12.0,-999.0,87,-99.99,,,0.01,5,weatherlink.com 1.10,2013-11-23 13:12:00,
2013-11-23 07:27:00,34.2,31.0,30.65,North,355,8.0,-999.0,86,-99.99,,,0.01,12,weatherlink.com 1.10,2013-11-23 13:27:00,
2013-11-23 07:42:00,34.2,30.0,30.66,North,5,12.0,-999.0,85,-99.99,,,0.01,28,weatherlink.com 1.10,2013-11-23 13:42:00,
2013-11-23 07:57:00,34.1,30.0,30.66,North,360,11.0,-999.0,86,-99.99,,,0.01,65,weatherlink.com 1.10,2013-11-23 13:57:00,
2013-11-23 08:12:00,34.0,30.0,30.67,NW,321,6.0,-999.0,86,-99.99,,,0.01,84,weatherlink.com 1.10,2013-11-23 14:12:00,
2013-11-23 08:27:00,33.9,30.0,30.67,NNW,328,9.0,-999.0,86,-99.99,,,0.01,95,weatherlink.com 1.10,2013-11-23 14:27:00,
2013-11-23 08:42:00,34.3,31.0,30.68,NNW,327,12.0,-999.0,86,-99.99,,,0.01,179,weatherlink.com 1.10,2013-11-23 14:42:00,
2013-11-23 08:57:00,34.6,30.0,30.68,NW,311,8.0,-999.0,83,-99.99,,,0.01,125,weatherlink.com 1.10,2013-11-23 14:57:00,
2013-11-23 09:12:00,35.0,29.0,30.68,NNW,340,10.0,-999.0,80,-99.99,,,0.01,142,weatherlink.com 1.10,2013-11-23 15:12:00,
2013-11-23 09:27:00,35.4,29.0,30.68,NW,319,9.0,-999.0,78,-99.99,,,0.01,165,weatherlink.com 1.10,2013-11-23 15:27:00,
2013-11-23 09:42:00,35.7,28.0,30.68,NNW,342,7.0,-999.0,74,-99.99,,,0.01,155,weatherlink.com 1.10,2013-11-23 15:42:00,
2013-11-23 09:57:00,36.3,28.0,30.68,NNW,336,11.0,-999.0,71,-99.99,,,0.01,200,weatherlink.com 1.10,2013-11-23 15:57:00,
2013-11-23 10:12:00,37.3,23.0,30.68,North,355,11.0,-999.0,57,-99.99,,,0.01,221,weatherlink.com 1.10,2013-11-23 16:12:00,
2013-11-23 10:27:00,38.0,25.0,30.69,NNE,17,13.0,-999.0,59,-99.99,,,0.01,134,weatherlink.com 1.10,2013-11-23 16:27:00,
2013-11-23 10:42:00,37.7,21.0,30.69,NNW,340,21.0,-999.0,52,-99.99,,,0.01,207,weatherlink.com 1.10,2013-11-23 16:42:00,
2013-11-23 10:57:00,37.3,20.0,30.69,North,351,6.0,-999.0,49,-99.99,,,0.01,151,weatherlink.com 1.10,2013-11-23 16:57:00,
2013-11-23 11:12:00,37.5,20.0,30.69,NNW,333,11.0,-999.0,50,-99.99,,,0.01,174,weatherlink.com 1.10,2013-11-23 17:12:00,
2013-11-23 11:27:00,37.7,21.0,30.68,North,360,7.0,-999.0,51,-99.99,,,0.01,120,weatherlink.com 1.10,2013-11-23 17:27:00,
2013-11-23 11:42:00,38.0,19.0,30.68,NNW,329,13.0,-999.0,47,-99.99,,,0.01,171,weatherlink.com 1.10,2013-11-23 17:42:00,
2013-11-23 11:57:00,38.0,19.0,30.67,North,350,10.0,-999.0,47,-99.99,,,0.01,290,weatherlink.com 1.10,2013-11-23 17:57:00,
2013-11-23 12:12:00,38.6,19.0,30.66,North,10,4.0,-999.0,46,-99.99,,,0.01,262,weatherlink.com 1.10,2013-11-23 18:12:00,
2013-11-23 12:27:00,39.2,19.0,30.66,NNW,348,14.0,-999.0,45,-99.99,,,0.01,269,weatherlink.com 1.10,2013-11-23 18:27:00,
2013-11-23 12:42:00,38.6,19.0,30.67,NW,325,10.0,-999.0,45,-99.99,,,0.01,197,weatherlink.com 1.10,2013-11-23 18:42:00,
2013-11-23 12:57:00,38.5,19.0,30.66,NNW,343,9.0,-999.0,46,-99.99,,,0.01,229,weatherlink.com 1.10,2013-11-23 18:57:00,
2013-11-23 13:12:00,38.9,18.0,30.66,North,355,20.0,-999.0,43,-99.99,,,0.01,206,weatherlink.com 1.10,2013-11-23 19:12:00,
2013-11-23 13:27:00,39.5,20.0,30.66,NW,321,13.0,-999.0,46,-99.99,,,0.01,257,weatherlink.com 1.10,2013-11-23 19:27:00,
2013-11-23 13:42:00,39.6,18.0,30.65,North,355,14.0,-999.0,42,-99.99,,,0.01,206,weatherlink.com 1.10,2013-11-23 19:42:00,
2013-11-23 13:57:00,39.7,20.0,30.65,NNW,336,13.0,-999.0,46,-99.99,,,0.01,202,weatherlink.com 1.10,2013-11-23 19:57:00,
2013-11-23 14:12:00,39.8,21.0,30.65,NNW,336,8.0,-999.0,47,-99.99,,,0.01,185,weatherlink.com 1.10,2013-11-23 20:12:00,
2013-11-23 14:27:00,39.8,21.0,30.66,NNW,337,9.0,-999.0,47,-99.99,,,0.01,192,weatherlink.com 1.10,2013-11-23 20:27:00,
2013-11-23 14:42:00,40.0,22.0,30.65,North,355,11.0,-999.0,49,-99.99,,,0.01,178,weatherlink.com 1.10,2013-11-23 20:42:00,
2013-11-23 14:57:00,40.0,22.0,30.65,NNW,342,9.0,-999.0,48,-99.99,,,0.01,158,weatherlink.com 1.10,2013-11-23 20:57:00,
2013-11-23 15:12:00,40.2,22.0,30.65,North,355,11.0,-999.0,49,-99.99,,,0.01,178,weatherlink.com 1.10,2013-11-23 21:12:00,
2013-11-23 15:27:00,40.3,22.0,30.65,NNW,346,13.0,-999.0,49,-99.99,,,0.01,104,weatherlink.com 1.10,2013-11-23 21:27:00,
2013-11-23 15:42:00,40.5,23.0,30.65,NNW,336,7.0,-999.0,51,-99.99,,,0.01,51,weatherlink.com 1.10,2013-11-23 21:42:00,
2013-11-23 15:57:00,40.9,22.0,30.65,NNW,341,8.0,-999.0,48,-99.99,,,0.01,39,weatherlink.com 1.10,2013-11-23 21:57:00,
2013-11-23 16:12:00,40.9,22.0,30.64,North,355,11.0,-999.0,48,-99.99,,,0.01,37,weatherlink.com 1.10,2013-11-23 22:12:00,
2013-11-23 16:27:00,40.6,22.0,30.64,North,355,12.0,-999.0,48,-99.99,,,0.01,19,weatherlink.com 1.10,2013-11-23 22:27:00,
2013-11-23 16:42:00,40.4,21.0,30.64,NNW,348,12.0,-999.0,47,-99.99,,,0.01,11,weatherlink.com 1.10,2013-11-23 22:42:00,
2013-11-23 16:57:00,39.9,23.0,30.65,North,9,18.0,-999.0,51,-99.99,,,0.01,0,weatherlink.com 1.10,2013-11-23 22:57:00,
2013-11-23 17:12:00,38.9,23.0,30.66,North,350,15.0,-999.0,53,-99.99,,,0.01,0,weatherlink.com 1.10,2013-11-23 23:12:00,
2013-11-23 17:27:00,37.5,21.0,30.67,NNW,341,12.0,-999.0,51,-99.99,,,0.01,0,weatherlink.com 1.10,2013-11-23 23:27:00,
2013-11-23 17:42:00,36.7,21.0,30.68,North,355,10.0,-999.0,54,-99.99,,,0.01,0,weatherlink.com 1.10,2013-11-23 23:42:00,
2013-11-23 17:58:00,36.0,20.0,30.68,North,360,12.0,-999.0,53,-99.99,,,0.01,0,weatherlink.com 1.10,2013-11-23 23:58:00,
2013-11-23 18:13:00,35.1,19.0,30.69,NNW,348,17.0,-999.0,53,-99.99,,,0.01,0,weatherlink.com 1.10,2013-11-24 00:13:00,
2013-11-23 18:28:00,34.0,16.0,30.70,North,360,15.0,-999.0,47,-99.99,,,0.01,0,weatherlink.com 1.10,2013-11-24 00:28:00,
2013-11-23 18:43:00,33.2,16.0,30.71,North,11,9.0,-999.0,49,-99.99,,,0.01,0,weatherlink.com 1.10,2013-11-24 00:43:00,
2013-11-23 18:58:00,32.6,17.0,30.71,NNW,337,13.0,-999.0,54,-99.99,,,0.01,0,weatherlink.com 1.10,2013-11-24 00:58:00,
2013-11-23 19:13:00,32.3,18.0,30.72,NNW,346,10.0,-999.0,57,-99.99,,,0.01,0,weatherlink.com 1.10,2013-11-24 01:13:00,
2013-11-23 19:28:00,31.9,18.0,30.73,NNW,341,10.0,-999.0,56,-99.99,,,0.01,0,weatherlink.com 1.10,2013-11-24 01:28:00,
2013-11-23 19:43:00,31.4,18.0,30.73,NNW,340,16.0,-999.0,57,-99.99,,,0.01,0,weatherlink.com 1.10,2013-11-24 01:43:00,
2013-11-23 19:58:00,30.9,17.0,30.74,North,355,9.0,-999.0,56,-99.99,,,0.01,0,weatherlink.com 1.10,2013-11-24 01:58:00,
2013-11-23 20:13:00,30.6,16.0,30.74,NNE,21,5.0,-999.0,56,-99.99,,,0.01,0,weatherlink.com 1.10,2013-11-24 02:13:00,
2013-11-23 20:28:00,30.3,16.0,30.74,North,355,11.0,-999.0,55,-99.99,,,0.01,0,weatherlink.com 1.10,2013-11-24 02:28:00,
2013-11-23 20:43:00,29.9,15.0,30.74,North,349,10.0,-999.0,54,-99.99,,,0.01,0,weatherlink.com 1.10,2013-11-24 02:43:00,
2013-11-23 20:58:00,29.7,15.0,30.74,NNW,343,11.0,-999.0,54,-99.99,,,0.01,0,weatherlink.com 1.10,2013-11-24 02:58:00,
2013-11-23 21:13:00,29.4,15.0,30.73,NNW,348,13.0,-999.0,56,-99.99,,,0.01,0,weatherlink.com 1.10,2013-11-24 03:13:00,
2013-11-23 21:28:00,29.1,16.0,30.73,North,360,6.0,-999.0,58,-99.99,,,0.01,0,weatherlink.com 1.10,2013-11-24 03:28:00,
2013-11-23 21:43:00,28.8,16.0,30.73,NNW,338,17.0,-999.0,58,-99.99,,,0.01,0,weatherlink.com 1.10,2013-11-24 03:43:00,
2013-11-23 21:58:00,28.5,16.0,30.74,North,5,12.0,-999.0,60,-99.99,,,0.01,0,weatherlink.com 1.10,2013-11-24 03:58:00,
2013-11-23 22:13:00,28.3,15.0,30.74,NNW,336,14.0,-999.0,58,-99.99,,,0.01,0,weatherlink.com 1.10,2013-11-24 04:13:00,
2013-11-23 22:28:00,27.7,13.0,30.74,NNW,347,17.0,-999.0,55,-99.99,,,0.01,0,weatherlink.com 1.10,2013-11-24 04:28:00,
2013-11-23 22:43:00,27.5,14.0,30.75,NW,325,13.0,-999.0,57,-99.99,,,0.01,0,weatherlink.com 1.10,2013-11-24 04:43:00,
2013-11-23 22:58:00,27.0,12.0,30.75,North,355,11.0,-999.0,53,-99.99,,,0.01,0,weatherlink.com 1.10,2013-11-24 04:58:00,
2013-11-23 23:13:00,26.7,13.0,30.76,NNE,17,6.0,-999.0,57,-99.99,,,0.01,0,weatherlink.com 1.10,2013-11-24 05:13:00,
2013-11-23 23:28:00,26.3,13.0,30.75,NNE,14,12.0,-999.0,57,-99.99,,,0.01,0,weatherlink.com 1.10,2013-11-24 05:28:00,
2013-11-23 23:43:00,25.9,13.0,30.75,NNE,20,7.0,-999.0,59,-99.99,,,0.01,0,weatherlink.com 1.10,2013-11-24 05:43:00,
2013-11-23 23:58:00,25.5,14.0,30.76,NNE,13,6.0,-999.0,61,-99.99,,,0.01,0,weatherlink.com 1.10,2013-11-24 05:58:00,